Location: Unspecified
(34.4480°N, 0.0000°E)
Time: 03:25:25
(UTC+00:00)

ISS - Visible Passes

Search period start: 21 November 2019 00:00
Search period end: 01 December 2019 00:00
Orbit: 412 x 421 km, 51.6° (Epoch: 21 November)

Date Brightness Start Highest point End Pass type
(mag) Time Alt. Az. Time Alt. Az. Time Alt. Az.
21 Nov -3.7 18:11:43 10° SW 18:15:02 77° NW 18:16:05 41° NE visible
22 Nov -3.4 17:23:28 10° SSW 17:26:42 52° SE 17:29:58 10° ENE visible
22 Nov -1.0 19:01:26 10° WNW 19:02:53 15° NW 19:02:53 15° NW visible
23 Nov -1.9 18:12:17 10° W 18:15:08 25° NW 18:16:40 18° N visible
24 Nov -2.8 17:23:26 10° WSW 17:26:38 43° NW 17:29:52 10° NE visible
25 Nov -1.1 18:14:04 10° NW 18:15:24 12° NNW 18:16:45 10° N visible
26 Nov -1.4 17:24:26 10° WNW 17:26:45 17° NNW 17:29:06 10° NNE visible
